Погода в Гвасюги

Погода в Гвасюги : погода сейчас, прогноз погоды и архив. Всё, что Вы хотите узнать о погоде в Гвасюги!

Поиск расширенной информации на нашем сайте:

Другие новости

Новости СМИ2

Главная страница сайта

Новости сайта

02.10.2013

Напоминаем, что на нашем новом сайте вы можете получить высокодетализированные прогнозы погоды по пунктам России, СНГ и мира (включающие важные для авиации метеовеличины, такие как направление и скорость ветра, видимость, явления погоды, количество и форма облачности, нижняя и верхняя граница облачности), а также ознакомиться с разнообразными материалами по авиационной метеорологии и подборкой полезных ссылок на эту тему.

Сайт Метеоцентр.Азия посвящён разработке технологий оптимизации авиаметеорологического обслуживания, включая проектирование и перспективное создание нескольких автоматизированных авиаметеорологических систем:
- система выпуска высокодетальных прогностических карт явлений погоды для нижнего воздушного пространства по России и ближнему зарубежью;
- система верификации прогнозов TAF (выпускаемых синоптиками официальных АМСГ РФ и ближнего зарубежья) и AUTOTAF (выпускаемых сайтом Метеоцентр.Азия) - выявление ошибок, онлайн-сопоставление с фактической погодой METAR, автоматическое внесение коррективов в прогнозы при резком отклонении фактической погоды от прогноза, подсчёт оправдываемости прогнозов по элементам и в целом;
- система обработки, анализа и отображения авиаметеорологической информации для применения провайдерами метеорологической информации.

Рекомендуем: Кредит наличными: росгосстрах банк взять потребительский кредит www.balt-credit.ru.

Погода в Гвасюги - сегодня

Время (UTC), дата Ветер
(°,м/с) 
Видим.   Явления Облачность Т
(°С)
Тd
(°С)
f(%) Тe
(°С)
Pmin
(гПа)
dP
(гПа)
Po
(мм)
O2
(г/м3)
Тmin Tmax R s Состояние
почвы
15 25.05.17 020 (С) 20000 м    ясно 
+2.7 +1.9 94 +3  1014.1  0.4  744  296           
18 25.05.17 360 (С) 20000 м    6/0 верхняя 
[Ci fib]
+1.3 +0.8 96 +2  1013.8  -0.4  744  298           
21 25.05.17 360 (С) 0500 м  туман  ?/?  
+2.6 +2.1 96 +3  1013.9  0.2  744  297  +1        сухая 
00 26.05.17 140 (ЮВ) 20000 м  {туман}  ясно 
+11.7 +5.5 66 +13  1012.4  -0.8  743  286           
03 26.05.17 140 (ЮВ) 20000 м    1/1 600 м 
[Cu hum]
+19.7 +0.8 28 +21  1009.7  -2.1  742  279           
06 26.05.17 270 (З) 20000 м    1/1 600 м 
[Cu hum]
+22.9 +0 22 +23  1007.2  -2.2  740  275           
09 26.05.17 340 (С) 20000 м    ясно 
+22 +3.3 29 +22  1006.6  -0.6  740  275    +23.2       
12 26.05.17 050 (СВ) 20000 м    ясно 
+8.7 +6.5 86 +10  1009.7  741  288           
15 26.05.17 020 (С) 20000 м    ясно 
+4.9 +4 94 +5  1011  742  293           
18 26.05.17 020 (С) 20000 м    ясно 
+2.2 +1.7 96 +3  1011.4  0.2  742  296           
00 27.05.17 140 (ЮВ) 20000 м    3/0 верхняя 
[Ci fib]
+15.5 +7.5 59 +17  1010.2  -0.7  742  282  +5.6         
03 27.05.17 270 (З) 20000 м    1/0 600 м верхняя 
[Ci fib]
+24.7 +2.2 23 +25  1006.6  -2.8  740  273           
06 27.05.17 090 (В) 20000 м    1/0 верхняя 
[Ci]
+26.4 +3.5 23 +26  1004.5  -2  738  271           
12 27.05.17 тихо ()   20000 м    ясно 
+10.3 +7.6 83 +10  1006.3  1.4  739  285           
15 27.05.17 360 (С) 20000 м    ясно 
+5.2 +4.3 94 +6  1007.1  0.3  739  291           
18 27.05.17 360 (С) 20000 м    ясно 
+2.6 +1.8 94 +3  1007.3  739  295           
00 28.05.17 110 (В) 20000 м    3/0 верхняя 
[Ci sp]
+17.6 +6.8 49 +19  1005.2  -1.2  738  278           
03 28.05.17 250 (З) 20000 м    3/0 верхняя 
[Ci fib]
+24.8 +4.8 27 +25  1002.2  -2.4  736  271           
06 28.05.17 200 (Ю) 20000 м    4/3 600 м верхняя 
[Cu hum|Ci sp]
+26.7 +4.1 23 +27  999.1  -3  734  269           
12 28.05.17 тихо ()   20000 м    3/0 верхняя 
[Ci fib]
+10.8 +8.6 86 +11  1000.4  1.5  734  283           
15 28.05.17 тихо ()   20000 м    1/0 верхняя 
[Ci fib]
+5.9 +5.2 95 +6  1000.8  734  289           
18 28.05.17 тихо ()   20000 м    10/5 600 м средняя 
[Sc|As op]
+5.3 +4.8 97 +5  1000.9  734  289           
00 29.05.17 250 (З) 4-10  20000 м    1/1 600 м 
[Cu hum]
+16.7 +0 32 +17  1004.6  0.4  738  280           
03 29.05.17 270 (З) 3{13}  20000 м    3/3 600 м 
[Cu hum]
+19.4 -0.5 26 +20  1003.3  -1  737  277           
06 29.05.17 270 (З) 20000 м    3/3 600 м 
[Cu hum]
+20 -2.1 22 +20  1001.7  -1.5  736  276           
Время (UTC), дата Ветер
(°,м/с) 
Видим.   Явления Облачность Т
(°С)
Тd
(°С)
f(%) Тe
(°С)
Pmin
(гПа)
dP
(гПа)
Po
(мм)
O2
(г/м3)
Тmin Tmax R s Состояние
почвы

Для получения пояснительной информации подведите курсор к названию столбца.

ПОГОДА в Гвасюги - архив

Всё, что Вы хотите узнать о погоде в Гвасюги - удобно и подробно!

Выберите нужную дату (начиная с 1 января 2015* года) и нажмите кнопку "Найти".
Будут отображены архивные сводки погоды по пункту Гвасюги, начиная с указанной даты.


Отображать данные в формате CSV (для использования в таблицах Excel)


Внимание! Наш архив погоды предназначен исключительно для личного некоммерческого использования в познавательных целях. Если Вам необходимы официальные справки о состоянии погоды (для производственных, юридических, коммерческих и т.п. целей), обращайтесь в органы Росгидромета.

*Примечание: данная дата относится к архиву по метеостанциям СССР (Россия, СНГ, Балтия).
Архив по метеостанциям Зарубежной Европы и Азии (кроме Китая) хранится 10 дней, по другим регионам земного шара (Китай, Африка, Америка, Австралия, Океания) - 1 день.

Гвасюги - район местоположения метеостанции


Название, широта, долгота, высота метеостанции:
Гвасюги 47.7°ш. 136.2°д. 180 м над ур. моря [Российская Федерация]

Дополнительная информация

В oтличие oт бoльшинства пoгoдных сайтoв мы публикуем пoдрoбную метеoинфoрмацию в детальнoм прoфессиoнальнoм фoрмате.

Характеристики температуры и влажнoсти вoздуха измеряются на высoте 2 м в тени вдали oт зданий и деревьев.
Скoрoсть ветра измеряется на высoте 10 м (на урoвне рoста челoвека скoрoсть ветра ниже в 1.5-2 раза). Если метеoстанция нахoдится в гoрoде или в лесу, тo скoрoсть ветра занижена на 2-4 м/с пo сравнению с oткрытым местoм. Скoрoсть ветра над акватoриями крупных рек и oзёр, а также на вершинах хoлмoв на 2-5 м/с выше, чем в oбычных услoвиях.
Атмoсфернoе давление в разных тoчках местнoсти мoжет значительнo oтличаться oт давления на метеoстанции, в зависимoсти oт услoвий рельефа (при пoдъёме на 10 м давление пoнижается примернo на 1 мм рт.ст.).